{"data":{"norad_id":45589,"intl_designator":"2020-025BL","name":"STARLINK-1364","alt_names":[],"object_type":"PAYLOAD","status":"ACTIVE","operator":null,"country":"US","launch_date":"2020-04-22","launch_site_code":"AFETR","launch_vehicle":null,"mission":null,"orbit_class":"UNKNOWN","rcs_meters":null,"size_class":null,"mass_kg":null,"dimensions":null,"purposes":["comms"],"wikipedia_slug":null,"has_3d_model":false,"image_url":null,"decayed_at":null,"tle_current":{"epoch":"2026-05-25T06:00:02.000160Z","epoch_age_seconds":56997,"freshness":"FRESH","line1":"1 45589U 20025BL  26145.25002315  .02037133  00000+0  17167-1 0  9997","line2":"2 45589  53.0427  52.3811 0001801  82.0331 324.6470 15.65991892  5894","mean_motion":15.65991892,"eccentricity":0.0001801,"inclination_deg":53.0427,"raan_deg":52.3811,"arg_perigee_deg":82.0331,"mean_anomaly_deg":324.647,"bstar":0.017167,"rev_number":589,"period_min":91.95449908498,"perigee_km":369.17218905466,"apogee_km":371.60300761498,"semimajor_km":6748.5245983348,"source":"CELESTRAK","updated_at":"2026-05-25T13:38:16.425826Z"}}}